This is the latest recevied weather packets stored in our database for station/object HB9TJR-8. If no packets are shown the sender has not sent any weather packets the latest 10 day(s).
| Time | Temp. | Humidity | Pressure | Rain* | Wind** | Luminosity | Snow |
|---|---|---|---|---|---|---|---|
| 1787477193 | 20.56° C | 59% | 970.5 hPa | 0 mm | - | - | - |
| 1787476394 | 20° C | 59% | 970.6 hPa | 0 mm | - | - | - |
| 1787475591 | 20° C | 59% | 970.6 hPa | 0 mm | - | - | - |
| 1787474790 | 19.44° C | 60% | 970.6 hPa | 0 mm | - | - | - |
| 1787473988 | 19.44° C | 60% | 970.6 hPa | 0 mm | - | - | - |
| 1787473187 | 19.44° C | 61% | 970.7 hPa | 0 mm | - | - | - |
| 1787472387 | 18.89° C | 60% | 970.8 hPa | 0 mm | - | - | - |
| 1787471585 | 18.89° C | 62% | 970.8 hPa | 0 mm | - | - | - |
| 1787470784 | 18.33° C | 62% | 970.9 hPa | 0 mm | - | - | - |
| 1787469983 | 18.33° C | 64% | 970.9 hPa | 0 mm | - | - | - |
| 1787469182 | 17.78° C | 65% | 970.9 hPa | 0 mm | - | - | - |
| 1787468382 | 17.78° C | 64% | 971 hPa | 0 mm | - | - | - |
| 1787467580 | 17.78° C | 63% | 971.1 hPa | 0 mm | - | - | - |
| 1787466779 | 17.78° C | 63% | 971 hPa | 0 mm | - | - | - |
| 1787465978 | 17.78° C | 63% | 970.9 hPa | 0 mm | - | - | - |
| 1787465177 | 17.78° C | 62% | 971 hPa | 0 mm | - | - | - |
| 1787464376 | 17.22° C | 62% | 970.8 hPa | 0 mm | - | - | - |
| 1787463575 | 17.22° C | 63% | 970.8 hPa | 0 mm | - | - | - |
| 1787462774 | 16.67° C | 64% | 970.7 hPa | 0 mm | - | - | - |
| 1787461973 | 15.56° C | 65% | 970.5 hPa | 0 mm | - | - | - |
| 1787461172 | 15.56° C | 65% | 970.3 hPa | 0 mm | - | - | - |
| 1787460371 | 15.56° C | 65% | 970.2 hPa | 0 mm | - | - | - |
| 1787459570 | 15.56° C | 64% | 970 hPa | 0 mm | - | - | - |
| 1787458769 | 16.11° C | 64% | 970 hPa | 0 mm | - | - | - |
| 1787457968 | 16.11° C | 63% | 969.8 hPa | 0 mm | - | - | - |
* Rain latest hour (hover to see other rain measurements)
** Current wind speed in m/s (hover to see current wind gust speed)